Hourly Data Report for June 25, 2017

FISHER BRANCH (AUT)
MANITOBA

51°05'00.100" N
97°33'16.200" W
253.00 m
50309J6
71442
WSZ

Download Data

Hourly Data (June 2017)
Hourly Data Report for June 25, 2017
TIME
LST
Temp Definition
°C
Dew Point Definition
°C
Rel Hum Definition
%
Precip. Amount Definition
mm

Wind Dir Definition
10's deg

Wind Spd Definition
km/h
Visibility Definition
km
Stn Press Definition
kPa
Hmdx Definition


Wind Chill Definition


Weather Definition


00:00 7.1 5.2 88 0.0 31 8   99.20     LegendNANA
01:00 7.8 5.9 88 0.0 30 6   99.20     LegendNANA
02:00 7.3 5.8 90 0.0 29 8   99.22     LegendNANA
03:00 7.7 6.2 90 0.0 31 6   99.21     LegendNANA
04:00 7.8 6.3 90 0.0 30 7   99.22     LegendNANA
05:00 7.3 6.0 92 0.0 30 6   99.24     LegendNANA
06:00 8.5 6.8 89 0.0 7 2   99.29     LegendNANA
07:00 9.8 7.3 85 0.0 30 6   99.30     LegendNANA
08:00 11.3 7.3 76 0.0 30 3   99.32     LegendNANA
09:00 13.8 7.6 66 0.0 26 4   99.30     LegendNANA
10:00 15.8 7.0 56 0.0 28 8   99.26     LegendNANA
11:00 15.3 5.8 53 0.0 32 13   99.25     LegendNANA
12:00 15.6 5.6 51 0.0 30 18   99.22     LegendNANA
13:00 16.9 7.0 52 0.0 29 19   99.19     LegendNANA
14:00 17.8 5.3 44 0.0 31 12   99.18     LegendNANA
15:00 19.2 1.1 30 0.0 35 20   99.14     LegendNANA
16:00 19.1 2.1 32 0.0 34 17   99.14     LegendNANA
17:00 19.3 1.9 31 0.0 33 16   99.13     LegendNANA
18:00 19.1 1.5 31 0.0 35 14   99.13     LegendNANA
19:00 17.3 6.3 48 0.0 32 12   99.14     LegendNANA
20:00 15.5 6.1 53 0.0 31 7   99.12     LegendNANA
21:00 12.4 5.7 63 0.0 27 5   99.12     LegendNANA
22:00 11.6 6.4 71 0.0 24 9   99.10     LegendNANA
23:00 11.0 6.8 75 0.0 25 12   99.09     LegendNANA

Notes on Data Quality.

Legend

  • E = Estimated
  • M = Missing
  • NA = Not Available*
  • [empty] = Indicates an unobserved value
Date modified: